TimeCST,TemperatureF,Dew PointF,Humidity,Sea Level PressureIn,VisibilityMPH,Wind Direction,Wind SpeedMPH,Gust SpeedMPH,PrecipitationIn,Events,Conditions,WindDirDegrees,DateUTC
12:15 AM,32.0,31.1,96,29.86,7.0,WNW,13.8,-,N/A,,Overcast,300,2013-02-28 06:15:00
12:35 AM,32.0,31.1,96,29.86,7.0,WNW,13.8,-,N/A,,Overcast,300,2013-02-28 06:35:00
12:55 AM,32.0,31.1,96,29.87,7.0,WNW,15.0,-,N/A,,Overcast,300,2013-02-28 06:55:00
1:15 AM,32.0,31.3,97,29.87,5.0,NW,13.8,-,N/A,Snow,Light Snow,310,2013-02-28 07:15:00
1:35 AM,32.0,31.1,96,29.88,5.0,NW,15.0,-,N/A,Snow,Light Snow,310,2013-02-28 07:35:00
1:55 AM,32.0,31.1,96,29.88,4.0,NW,13.8,-,N/A,Snow,Light Snow,310,2013-02-28 07:55:00
2:15 AM,32.0,31.1,96,29.88,5.0,NW,12.7,-,N/A,,Overcast,320,2013-02-28 08:15:00
2:35 AM,32.0,31.1,96,29.88,10.0,NW,15.0,-,N/A,,Overcast,320,2013-02-28 08:35:00
2:55 AM,32.0,30.9,96,29.88,7.0,NW,12.7,-,N/A,,Overcast,320,2013-02-28 08:55:00
3:15 AM,32.0,30.7,95,29.88,10.0,NW,13.8,-,N/A,,Overcast,320,2013-02-28 09:15:00
3:35 AM,32.0,30.6,94,29.89,10.0,NW,13.8,-,N/A,,Overcast,320,2013-02-28 09:35:00
3:55 AM,32.0,30.6,94,29.90,10.0,NW,10.4,-,N/A,,Overcast,310,2013-02-28 09:55:00
4:15 AM,32.0,30.4,94,29.90,10.0,NW,13.8,-,N/A,,Overcast,310,2013-02-28 10:15:00
4:35 AM,32.0,30.2,93,29.90,10.0,NW,12.7,-,N/A,,Overcast,320,2013-02-28 10:35:00
4:55 AM,32.0,30.2,93,29.92,10.0,NW,10.4,-,N/A,,Overcast,320,2013-02-28 10:55:00
5:15 AM,32.0,30.0,92,29.92,10.0,NW,13.8,-,N/A,,Overcast,320,2013-02-28 11:15:00
5:35 AM,32.0,29.8,92,29.93,10.0,NW,13.8,-,N/A,,Overcast,320,2013-02-28 11:35:00
5:55 AM,32.0,29.8,92,29.94,10.0,NW,12.7,-,N/A,,Overcast,310,2013-02-28 11:55:00
6:15 AM,32.0,30.0,92,29.95,10.0,NW,12.7,-,N/A,,Overcast,310,2013-02-28 12:15:00
6:35 AM,31.8,30.0,93,29.96,10.0,NW,12.7,-,N/A,,Overcast,310,2013-02-28 12:35:00
6:55 AM,31.8,29.8,92,29.96,10.0,NW,10.4,-,N/A,,Overcast,320,2013-02-28 12:55:00
7:15 AM,31.6,29.8,93,29.97,10.0,NW,11.5,-,N/A,,Overcast,310,2013-02-28 13:15:00
7:35 AM,31.5,29.7,93,29.98,10.0,NW,11.5,-,N/A,,Overcast,310,2013-02-28 13:35:00
7:55 AM,31.5,29.8,94,29.99,10.0,NW,12.7,-,N/A,,Overcast,310,2013-02-28 13:55:00
8:15 AM,31.6,29.7,92,29.99,7.0,NW,12.7,-,N/A,,Overcast,320,2013-02-28 14:15:00
8:35 AM,31.6,29.7,92,30.00,7.0,NW,12.7,-,N/A,Snow,Light Snow,320,2013-02-28 14:35:00
8:55 AM,31.6,29.8,93,30.00,3.0,NW,13.8,-,N/A,Snow,Light Snow,320,2013-02-28 14:55:00
9:15 AM,31.8,30.0,93,30.01,4.0,NW,13.8,-,N/A,Snow,Light Snow,320,2013-02-28 15:15:00
9:35 AM,32.0,30.0,92,30.02,2.5,NW,12.7,-,N/A,Snow,Light Snow,320,2013-02-28 15:35:00
9:55 AM,32.0,30.2,93,30.02,3.0,NW,11.5,-,N/A,Snow,Light Snow,320,2013-02-28 15:55:00
10:15 AM,32.0,30.2,93,30.03,5.0,NW,10.4,-,N/A,Snow,Light Snow,310,2013-02-28 16:15:00
10:35 AM,32.0,30.6,94,30.03,7.0,WNW,12.7,-,N/A,,Overcast,300,2013-02-28 16:35:00
10:55 AM,32.0,30.7,95,30.03,7.0,NW,11.5,-,N/A,,Overcast,310,2013-02-28 16:55:00
11:15 AM,32.0,30.6,94,30.04,10.0,WNW,12.7,-,N/A,,Overcast,300,2013-02-28 17:15:00
11:35 AM,32.0,30.2,93,30.04,7.0,NW,13.8,-,N/A,,Overcast,310,2013-02-28 17:35:00
11:55 AM,32.2,30.0,92,30.04,10.0,NW,13.8,-,N/A,,Overcast,310,2013-02-28 17:55:00
12:15 PM,32.2,30.2,92,30.04,10.0,NW,15.0,-,N/A,,Overcast,310,2013-02-28 18:15:00
12:35 PM,32.0,30.2,93,30.04,10.0,NW,12.7,18.4,N/A,,Overcast,320,2013-02-28 18:35:00
12:55 PM,32.9,29.7,88,30.04,10.0,NW,13.8,-,N/A,,Overcast,320,2013-02-28 18:55:00
1:15 PM,33.1,29.8,88,30.04,10.0,NW,13.8,-,N/A,,Overcast,320,2013-02-28 19:15:00
1:35 PM,32.9,30.2,90,30.04,10.0,NW,15.0,-,N/A,,Overcast,320,2013-02-28 19:35:00
1:55 PM,32.9,30.0,89,30.05,10.0,NW,13.8,18.4,N/A,,Overcast,320,2013-02-28 19:55:00
2:15 PM,32.9,30.2,90,30.05,10.0,NW,11.5,-,N/A,,Overcast,310,2013-02-28 20:15:00
2:35 PM,33.1,30.2,89,30.05,10.0,NW,12.7,-,N/A,,Overcast,320,2013-02-28 20:35:00
2:55 PM,33.1,30.0,89,30.06,10.0,NW,11.5,-,N/A,,Overcast,310,2013-02-28 20:55:00
3:15 PM,33.1,30.2,89,30.06,10.0,NW,9.2,-,N/A,,Overcast,310,2013-02-28 21:15:00
3:35 PM,32.9,30.2,90,30.07,10.0,NW,11.5,-,N/A,,Overcast,310,2013-02-28 21:35:00
3:55 PM,32.9,30.0,89,30.07,10.0,NW,11.5,-,N/A,,Overcast,310,2013-02-28 21:55:00
4:15 PM,32.5,30.2,91,30.08,10.0,NW,10.4,-,N/A,,Overcast,310,2013-02-28 22:15:00
4:35 PM,32.4,30.2,92,30.08,10.0,NW,10.4,-,N/A,,Overcast,310,2013-02-28 22:35:00
4:55 PM,32.4,30.2,92,30.08,10.0,NW,10.4,-,N/A,,Overcast,310,2013-02-28 22:55:00
5:15 PM,32.4,30.6,93,30.08,5.0,NW,10.4,-,N/A,,Overcast,310,2013-02-28 23:15:00
5:35 PM,32.0,30.9,96,30.09,4.0,NNW,8.1,-,N/A,Snow,Light Snow,330,2013-02-28 23:35:00
5:55 PM,32.0,31.5,98,30.09,2.0,NW,6.9,-,N/A,Snow,Light Snow,310,2013-02-28 23:55:00
6:15 PM,31.8,31.6,99,30.10,1.8,WNW,6.9,-,N/A,Snow,Light Snow,300,2013-03-01 00:15:00
6:35 PM,31.6,31.6,100,30.10,2.5,WNW,8.1,-,N/A,Snow,Light Snow,300,2013-03-01 00:35:00
6:55 PM,31.5,31.5,100,30.10,3.0,WNW,6.9,-,0.01,Snow,Light Snow,300,2013-03-01 00:55:00
7:15 PM,31.5,31.5,100,30.10,3.0,WNW,8.1,-,N/A,Snow,Light Snow,300,2013-03-01 01:15:00
7:35 PM,31.1,31.1,100,30.10,4.0,WNW,8.1,-,N/A,Snow,Light Snow,300,2013-03-01 01:35:00
7:55 PM,31.1,31.1,100,30.10,4.0,WNW,9.2,-,N/A,Snow,Light Snow,300,2013-03-01 01:55:00
8:15 PM,31.1,31.1,100,30.10,5.0,NW,10.4,-,N/A,Snow,Light Snow,310,2013-03-01 02:15:00
8:35 PM,30.2,30.2,100,30.10,5.0,NW,9.2,-,N/A,Snow,Light Snow,310,2013-03-01 02:35:00
8:55 PM,30.9,30.7,99,30.11,5.0,NW,9.2,-,N/A,,Overcast,310,2013-03-01 02:55:00
9:15 PM,30.7,30.6,99,30.10,5.0,NW,9.2,-,N/A,,Overcast,310,2013-03-01 03:15:00
9:35 PM,30.6,30.0,98,30.11,7.0,NW,9.2,-,N/A,,Overcast,310,2013-03-01 03:35:00
9:55 PM,30.2,29.8,99,30.11,7.0,NW,9.2,-,N/A,,Overcast,310,2013-03-01 03:55:00
10:15 PM,29.8,29.3,98,30.11,7.0,NW,10.4,-,N/A,,Overcast,310,2013-03-01 04:15:00
10:35 PM,29.3,28.9,99,30.11,7.0,NW,9.2,-,N/A,,Overcast,310,2013-03-01 04:35:00
10:55 PM,29.3,28.8,98,30.11,7.0,NW,10.4,-,N/A,,Overcast,310,2013-03-01 04:55:00
11:15 PM,29.3,28.6,97,30.11,7.0,NW,9.2,-,N/A,,Overcast,310,2013-03-01 05:15:00
11:35 PM,29.3,28.4,96,30.10,5.0,NW,10.4,-,N/A,,Overcast,310,2013-03-01 05:35:00
11:55 PM,28.9,28.4,98,30.10,4.0,NW,8.1,-,N/A,Snow,Light Snow,310,2013-03-01 05:55:00